Theta_e
323 315 315 324 325 326 328 330 327 335 335 335 334 331 332 332 334 338 335 338 340 336 322 320 320 317 316 315 313 311 313 315 315 315 315 315 315 315 315 315 316 319 323 323 321 322 323 327 332
319 316 320 324 326 329 329 326 327 337 338 337 336 330 336 339 336 336 340 341 340 327 323 321 320 317 317 316 313 312 313 315 316 316 316 316 317 317 316 317 319 323 330 330 331 333 334 334 334
318 321 318 324 327 328 328 330 337 339 337 336 337 335 333 337 337 337 339 341 338 328 324 321 319 317 317 317 314 312 313 316 317 317 317 318 318 319 319 320 322 328 333 334 335 336 336 336 336
321 324 321 326 331 330 332 331 332 339 338 335 335 337 331 332 334 338 339 341 338 329 324 322 320 318 318 317 315 313 313 315 317 318 318 318 319 319 320 322 324 328 335 337 338 338 339 338 338
323 320 322 326 329 331 332 332 330 338 339 336 335 336 332 333 337 337 338 339 337 332 325 323 321 318 317 318 316 314 314 315 317 318 319 318 319 320 321 323 326 329 335 337 339 339 339 338 337
322 320 325 327 327 329 329 328 328 338 338 337 336 333 330 333 337 339 338 337 336 335 330 325 322 319 318 318 317 316 314 315 316 318 319 319 320 321 322 323 326 331 337 339 339 338 336 335 335
320 320 325 328 329 330 330 330 328 328 329 330 330 332 331 331 334 337 338 337 337 336 336 330 324 320 319 319 318 317 315 315 316 318 319 320 321 322 323 323 327 333 337 338 334 331 330 328 328
320 319 324 324 328 329 330 328 327 327 330 329 329 331 331 329 333 334 336 337 337 337 337 336 331 322 319 318 318 319 317 315 316 317 319 321 322 324 324 322 326 329 330 331 328 328 329 328 326
322 322 322 323 326 327 327 327 328 329 329 329 330 329 328 332 332 332 332 332 335 340 338 338 336 329 321 320 319 319 319 317 316 317 319 321 324 325 326 323 326 331 332 333 332 331 330 328 325
332 328 324 321 324 324 324 326 326 329 329 330 330 330 331 331 329 327 328 327 328 338 340 340 338 336 330 324 323 320 319 319 317 318 319 321 324 326 326 324 331 334 335 335 333 331 329 324 324
332 335 327 323 322 323 323 324 326 327 328 328 330 330 330 330 328 326 326 327 329 329 337 340 339 338 338 335 328 329 325 322 321 321 320 321 324 327 327 328 334 334 335 336 334 331 330 328 328
329 331 333 331 328 326 325 324 325 326 326 327 327 327 328 327 327 326 325 328 329 329 329 333 338 339 338 340 335 334 331 326 327 327 324 323 326 327 327 333 334 334 334 334 334 331 331 331 330
320 326 327 326 327 327 326 326 326 326 326 327 328 327 326 324 324 326 327 329 329 328 328 328 334 339 339 341 339 339 336 332 329 331 328 325 327 327 331 337 336 335 335 335 334 332 331 332 331
314 316 321 323 323 323 326 327 328 328 328 328 327 325 324 324 323 325 326 328 328 329 329 327 333 337 341 341 340 340 340 338 335 332 329 328 327 327 335 338 336 333 334 334 333 332 332 331 331
314 315 317 318 319 323 324 326 327 327 326 325 325 324 324 324 324 323 326 328 329 329 329 328 330 337 341 342 342 342 343 341 338 335 332 330 329 329 337 338 335 335 336 334 333 332 332 331 330
318 317 318 319 319 319 322 325 326 325 324 325 325 325 326 325 325 326 327 327 328 329 329 329 329 334 340 344 344 344 344 343 342 340 338 339 336 335 339 337 335 336 335 334 333 333 331 331 331
315 322 319 319 320 321 321 323 324 323 324 324 324 325 325 326 325 324 326 327 327 329 330 328 329 333 337 343 344 344 344 343 342 341 341 340 339 339 340 335 335 335 335 334 334 334 333 331 331
319 320 320 320 320 321 321 322 322 323 323 323 323 324 325 325 325 325 326 326 327 329 330 328 330 335 338 343 344 344 344 344 343 343 342 341 342 341 336 334 334 334 334 334 334 334 333 331 331
317 318 320 320 320 321 322 322 323 323 323 322 323 324 324 323 323 324 325 326 325 328 327 328 333 341 341 344 347 345 344 344 342 341 339 339 338 333 333 335 334 334 334 334 332 331 331 331 330
313 314 316 316 316 320 321 322 322 322 323 322 323 323 323 322 322 322 323 326 328 330 331 333 335 339 344 345 344 345 342 338 337 336 335 334 333 334 335 334 335 336 334 332 331 330 330 329 329
313 313 315 316 315 315 315 316 317 318 318 319 320 321 321 323 322 322 322 324 329 334 336 337 338 344 347 347 346 344 341 338 336 334 334 333 334 335 335 335 334 332 332 331 330 330 329 328 328
313 313 314 314 315 315 316 316 316 317 317 318 319 319 320 320 321 322 322 328 333 337 341 345 347 348 348 348 346 343 337 335 335 334 334 334 336 336 334 333 332 331 331 330 330 330 329 329 327
310 313 315 315 315 314 315 317 317 317 319 319 319 319 321 320 318 319 320 329 336 342 346 349 349 349 348 347 346 343 339 337 335 334 333 334 334 334 333 332 332 331 331 331 330 330 330 329 328
308 312 312 313 313 315 315 315 316 316 317 319 320 319 320 319 318 329 328 336 338 341 345 348 348 348 347 346 344 341 336 335 334 334 334 335 334 334 333 333 332 330 329 330 330 330 330 329 328
306 307 311 314 315 317 315 316 317 316 317 318 318 319 319 318 323 336 336 337 339 341 343 344 344 343 341 338 336 335 334 334 334 334 334 333 333 332 331 332 332 330 329 331 331 330 329 329 328
305 305 311 314 317 316 316 317 316 316 317 318 319 319 321 332 333 336 336 338 340 341 342 340 339 338 337 334 335 334 335 335 334 334 333 333 333 332 331 330 330 331 332 332 332 331 329 328 329
310 306 307 310 312 315 316 316 317 317 317 317 317 323 335 335 335 336 337 339 339 338 339 338 337 337 335 335 334 334 334 334 333 332 332 331 332 331 329 331 331 332 332 332 331 328 328 328 328
311 311 309 308 314 315 317 318 318 318 318 318 317 333 336 335 336 337 338 337 337 337 338 337 337 334 335 334 334 334 334 334 333 332 331 331 330 330 331 331 332 332 331 330 330 328 327 327 327
309 313 308 309 310 315 317 318 317 317 317 318 317 335 336 336 336 337 337 336 336 337 336 336 335 333 334 334 334 334 333 333 332 331 330 331 331 331 330 331 332 332 330 330 329 327 326 324 324
311 310 311 311 310 313 315 317 317 318 318 323 327 337 335 335 336 336 336 335 336 336 336 335 335 334 334 334 333 333 333 332 331 331 330 330 330 330 330 331 331 331 331 329 330 329 327 324 326
Wind_Speed
6 4 1 1 2 3 3 5 4 6 6 4 6 5 6 2 5 4 7 28 20 32 37 34 30 26 22 21 20 20 18 17 15 14 13 12 10 9 7 6 6 6 6 5 4 3 2 2 4
4 3 2 1 3 1 4 4 8 3 4 5 9 4 7 2 2 7 13 24 24 33 36 35 31 26 23 22 21 20 19 17 15 13 12 11 11 9 9 7 7 7 7 6 5 4 4 5 6
5 4 3 3 3 5 4 3 3 3 2 5 7 5 1 3 3 8 5 27 24 31 35 34 32 29 26 25 24 23 22 19 17 15 14 12 12 11 9 8 8 9 9 8 7 7 7 8 9
4 3 3 1 8 7 4 10 4 4 5 6 2 5 1 6 8 18 21 26 26 28 34 34 34 33 31 29 27 26 24 23 20 18 16 15 14 13 11 10 10 10 10 10 10 11 12 11 11
2 2 1 4 6 6 10 9 11 5 3 4 13 10 3 6 21 27 31 32 29 29 35 35 35 35 33 31 30 29 28 26 24 22 19 18 16 14 13 12 11 11 12 12 11 12 13 13 13
1 1 1 5 8 8 7 7 16 5 5 6 2 2 3 13 28 31 32 33 29 29 34 36 36 36 36 34 33 32 30 29 27 25 23 20 18 15 13 13 12 12 13 13 12 13 14 13 13
5 3 4 4 5 7 3 8 5 7 9 3 5 7 0 3 22 33 33 32 32 30 31 35 38 38 38 37 36 34 33 31 30 28 25 22 19 17 15 13 12 13 13 14 14 14 14 14 15
4 3 3 4 4 8 3 10 5 6 7 4 6 5 6 9 22 21 27 32 33 33 33 35 36 41 41 40 38 37 36 34 33 31 28 25 22 19 17 14 13 13 13 12 12 13 13 13 13
5 2 5 6 6 9 6 10 16 6 6 7 3 6 9 21 19 17 19 16 22 32 36 38 40 41 44 43 42 39 37 36 35 33 30 27 26 23 20 16 13 14 13 13 13 12 12 12 12
6 7 9 9 7 6 9 1 11 18 12 6 6 1 2 7 22 15 16 15 21 33 40 39 40 41 42 44 42 42 40 39 39 37 35 32 29 25 20 17 14 16 15 15 14 11 10 9 10
6 14 12 12 9 10 14 15 9 14 15 9 7 8 5 4 12 5 12 14 15 20 32 37 39 42 44 44 44 43 43 42 42 40 38 34 30 26 21 18 16 15 16 19 16 13 13 11 9
10 14 15 16 16 14 17 15 17 15 16 11 10 9 6 9 9 9 12 20 20 19 19 26 38 44 46 43 45 43 44 45 45 44 40 35 32 27 22 20 17 18 18 20 19 16 15 15 12
21 17 13 12 18 20 18 21 20 24 19 16 17 11 9 8 10 18 25 27 25 23 23 24 33 42 45 45 45 42 44 45 46 43 41 36 33 27 22 21 18 17 19 19 18 18 17 17 16
4 4 13 13 19 18 18 23 21 22 20 21 13 12 10 9 9 10 16 23 28 30 28 23 31 38 42 45 47 47 43 43 42 42 40 38 33 26 24 21 20 19 17 16 14 17 18 17 18
11 10 15 21 10 13 18 27 28 23 18 22 16 12 10 10 13 12 26 25 24 28 34 24 28 35 39 43 46 45 43 40 39 37 35 35 31 28 26 24 21 19 18 17 15 13 14 17 17
2 4 18 20 19 9 5 32 23 10 10 17 17 18 21 22 22 26 33 34 28 25 22 27 27 30 36 40 43 44 41 39 37 34 31 28 29 28 27 23 20 17 14 15 16 17 17 18 20
6 17 21 24 10 5 13 42 13 11 14 14 14 17 17 19 19 23 35 39 36 24 23 27 26 30 35 38 39 38 37 35 33 31 30 27 27 27 29 23 18 18 18 17 17 18 18 21 21
12 22 18 17 7 15 18 33 22 19 22 24 24 24 22 21 19 26 33 40 32 25 30 28 23 30 32 33 31 33 31 30 29 28 27 27 27 27 25 21 15 15 18 18 19 20 19 20 21
10 12 15 4 10 14 20 22 20 17 19 14 17 17 19 17 18 24 30 34 23 20 25 23 22 29 30 31 30 29 29 28 24 26 25 21 25 25 25 20 14 17 20 22 20 20 21 22 17
14 15 19 6 8 10 14 25 25 24 24 19 22 21 17 14 12 10 13 17 18 22 19 19 24 29 32 31 29 25 31 27 27 23 22 24 23 25 23 16 16 18 17 17 15 14 16 17 16
16 18 14 10 11 20 7 19 18 18 14 12 11 13 12 16 14 12 10 18 19 20 23 23 26 29 29 28 28 22 24 23 18 21 20 21 22 24 19 16 14 11 12 13 12 11 13 10 11
18 12 11 16 13 15 4 20 24 19 25 18 13 11 15 13 9 10 9 6 18 21 20 20 22 28 28 28 29 30 21 20 16 20 17 19 22 21 18 14 11 9 10 9 8 7 9 10 9
19 14 11 13 11 14 14 6 30 10 18 17 18 19 19 14 11 13 12 8 18 24 23 23 24 26 28 29 29 29 25 20 16 15 15 15 18 16 11 9 8 7 8 7 7 7 8 10 10
8 10 16 17 4 8 12 13 22 15 18 11 12 11 12 10 10 1 5 20 19 25 26 27 28 28 28 26 27 27 23 17 19 18 18 18 15 10 9 7 7 7 6 7 7 7 9 10 11
7 1 4 4 6 16 13 9 21 11 7 11 15 15 14 9 5 8 10 11 16 19 26 28 29 29 27 26 24 22 18 18 23 22 18 14 11 9 7 9 8 9 7 6 5 6 8 9 11
7 9 5 7 5 8 14 10 9 16 25 25 17 17 6 4 5 8 10 11 14 20 24 26 28 28 27 25 23 22 22 22 18 15 15 13 9 5 6 8 7 6 7 8 8 10 10 9 11
5 10 7 5 14 2 7 9 8 19 24 22 18 5 6 7 9 11 11 12 17 18 23 27 28 28 27 26 24 20 18 18 16 12 10 8 6 7 9 7 6 5 6 6 6 6 5 6 7
6 4 3 4 8 6 6 6 11 8 10 10 10 10 7 6 12 12 11 11 16 22 27 29 28 29 26 24 20 18 18 16 12 9 9 8 8 9 7 6 7 5 3 2 2 1 3 6 7
3 2 3 4 4 10 3 6 5 13 12 17 8 14 15 13 13 13 12 12 18 22 24 27 27 26 24 22 20 18 18 14 12 10 11 11 9 10 7 6 5 4 2 1 2 6 6 7 4
4 6 5 2 7 4 4 16 12 16 9 19 12 15 12 13 13 13 13 12 17 18 24 26 25 24 22 22 20 19 19 17 14 11 11 11 9 9 7 5 5 4 1 0 1 4 10 8 6
Wind_Direction
260 278 173 60 74 75 250 255 248 289 14 332 299 76 129 87 153 204 169 177 183 176 178 176 178 175 170 167 163 161 160 157 156 154 153 152 149 148 151 150 155 163 170 173 176 184 208 249 263
200 130 34 59 107 171 256 233 243 357 253 336 346 92 40 31 26 115 128 179 177 175 177 178 180 179 176 174 172 170 168 167 165 162 161 160 157 160 165 168 175 183 189 192 198 215 233 252 259
158 122 78 159 188 205 211 214 199 93 310 81 354 42 143 153 90 152 192 177 179 176 181 181 183 182 183 183 179 177 177 177 175 174 175 175 173 175 178 181 186 195 201 207 219 233 239 247 253
156 49 353 223 236 263 229 268 226 233 23 84 73 327 130 268 145 164 174 175 178 182 186 187 187 186 188 188 185 184 184 184 185 185 184 187 187 186 187 190 197 202 207 215 228 238 241 244 249
99 61 211 246 256 254 259 276 260 220 166 253 159 213 158 168 150 159 172 178 179 184 191 195 193 190 192 193 192 190 190 191 191 193 193 196 196 194 193 196 205 210 215 219 230 241 245 247 247
53 126 141 240 253 265 270 273 241 162 214 249 258 128 203 177 151 172 177 181 187 189 192 199 198 197 197 197 197 196 196 196 196 198 199 201 202 202 202 205 210 215 221 228 239 245 247 246 246
146 114 226 266 269 295 307 313 324 173 177 251 175 138 184 265 177 176 184 188 193 193 196 200 203 203 203 202 201 201 200 202 202 203 203 205 206 207 210 214 218 222 228 235 248 248 251 251 252
156 112 249 238 233 270 344 333 301 351 326 142 131 155 186 228 194 183 187 195 199 199 204 204 204 207 206 207 207 205 204 205 207 207 206 207 209 212 215 222 228 229 234 234 247 250 255 258 258
140 145 235 227 205 249 46 360 317 332 342 342 264 170 187 210 205 203 209 203 201 208 209 207 203 206 210 211 210 209 210 209 211 211 209 209 210 213 217 226 237 237 239 241 242 253 260 258 260
172 193 228 231 233 284 308 241 290 305 319 300 320 245 9 324 186 196 208 218 197 204 211 211 210 209 211 212 214 212 211 212 215 214 211 210 213 216 220 230 237 243 248 248 247 254 258 252 263
210 226 214 254 256 261 272 288 237 273 278 252 254 282 306 301 302 278 249 226 229 213 210 216 216 213 215 213 214 214 214 215 218 218 215 213 214 216 220 230 231 239 245 247 245 245 245 245 254
264 239 230 249 262 266 260 271 277 263 256 248 236 227 245 246 242 250 243 233 233 239 224 215 217 215 218 214 214 214 213 216 219 220 217 214 215 215 219 224 229 238 248 250 244 245 248 247 245
251 254 245 247 249 254 266 265 263 276 279 276 272 279 256 258 267 270 268 251 241 243 245 227 216 217 217 212 213 214 216 219 220 221 220 216 217 214 216 222 231 239 243 244 242 242 246 250 240
296 292 266 257 251 256 259 265 265 266 271 279 280 284 281 264 251 257 267 255 252 249 245 235 217 214 213 212 215 217 219 221 220 223 225 220 218 214 214 216 224 242 248 237 230 234 240 247 234
262 282 279 259 248 256 257 262 253 253 268 270 271 273 267 261 273 249 258 254 256 259 259 235 217 213 213 215 217 215 218 217 218 221 221 220 218 213 211 218 227 236 234 224 220 227 230 229 227
244 249 247 250 245 244 268 265 252 249 273 276 277 277 274 277 278 271 261 258 258 259 261 222 218 210 213 213 215 213 214 217 218 216 216 214 211 207 207 217 219 223 224 227 237 242 241 237 238
209 239 238 250 227 237 205 261 245 238 254 263 268 269 271 272 271 259 257 258 254 254 225 220 222 214 216 215 212 208 210 213 215 214 213 210 207 204 212 216 220 230 238 246 250 240 248 255 247
215 222 236 255 216 227 238 263 264 264 266 269 271 270 268 268 263 260 255 257 243 235 225 226 222 214 213 209 206 204 207 210 213 210 207 210 204 196 215 218 230 235 238 245 246 251 255 249 249
274 263 252 253 200 214 242 255 264 254 256 258 263 266 261 253 248 253 255 252 239 243 236 222 207 207 204 194 179 179 183 186 182 181 177 188 193 207 209 216 230 232 237 244 263 270 260 244 238
248 267 268 307 297 230 245 257 260 262 262 253 257 257 255 253 257 263 244 231 220 217 218 208 203 200 201 190 183 176 167 156 164 174 186 193 204 207 207 221 233 235 241 263 271 269 259 253 222
244 236 260 268 305 291 304 284 272 265 264 264 258 259 261 258 259 260 230 221 211 194 196 197 196 192 188 181 168 155 155 159 158 173 185 200 205 206 210 215 228 242 257 269 273 267 246 239 206
250 251 253 245 255 261 203 280 265 270 268 267 251 250 255 262 245 240 243 180 187 189 186 177 177 178 175 172 163 158 154 157 181 189 190 198 200 198 203 214 223 249 268 260 262 259 237 223 206
251 251 245 230 238 247 243 275 269 225 250 250 253 248 258 262 241 237 232 185 178 164 155 158 162 163 161 161 164 165 168 172 181 192 201 196 185 194 203 204 234 258 251 248 252 239 229 225 219
286 232 235 258 242 244 218 220 277 246 247 243 247 253 264 254 257 195 163 146 139 147 143 147 149 154 155 158 164 165 163 168 161 156 162 164 169 185 219 227 231 224 242 238 236 240 234 230 229
232 241 232 239 202 234 178 220 239 267 238 242 251 254 248 260 199 147 142 138 130 132 138 143 146 147 146 148 151 153 156 151 155 157 156 164 180 203 209 207 215 225 238 231 229 240 235 231 226
186 182 192 197 193 243 258 234 247 236 253 260 248 254 273 231 147 136 132 126 125 131 136 139 138 141 145 141 136 132 129 135 141 157 166 174 193 189 182 181 200 223 232 236 236 229 223 228 232
310 219 206 283 275 356 233 283 298 270 272 266 262 232 183 147 130 126 123 124 127 130 137 142 137 140 141 133 130 130 132 136 139 142 151 160 173 172 168 185 199 221 228 245 258 239 241 232 202
202 293 167 201 213 236 259 257 234 263 263 270 248 174 157 142 132 130 127 128 126 136 144 146 138 139 135 136 134 129 131 134 139 148 155 159 154 161 172 181 206 210 211 225 222 133 151 169 163
308 224 221 168 197 221 288 248 234 256 268 274 233 172 159 160 142 135 131 128 131 136 142 144 141 140 140 142 141 143 143 146 147 150 160 159 176 177 174 188 197 177 164 131 168 186 179 175 175
236 248 149 195 255 265 229 256 266 290 304 293 172 161 149 143 139 134 134 134 136 139 144 149 147 148 150 154 156 156 152 154 157 162 163 170 173 183 189 194 189 187 174 268 38 185 195 183 166